CW7664 Weather Reports


Display with metric or nautical units.
time (UTC)temp
F
wind
direction
speed
MPH
gust
MPH
rain 1hr
in
rain 24hr
in
rain mn
in
humidity
%
barometer
mb
20260507014547 69 232 2.0 7.0 0.00 0.00 0.00 60 1014.2
20260507013038 70 331 1.0 6.0 0.00 0.00 0.00 60 1014.2
20260507011538 70 201 2.0 8.0 0.00 0.00 0.00 59 1014.2
20260507010041 70 221 3.0 7.0 0.00 0.00 0.00 58 1014.3
20260507004536 69 184 3.0 9.0 0.00 0.00 0.00 58 1014.4
20260507003038 70 204 4.0 11.0 0.00 0.00 0.00 56 1014.3
20260507001537 70 241 4.0 9.0 0.00 0.00 0.00 55 1014.3
20260507000039 71 178 4.0 10.0 0.00 0.00 0.00 54 1014.2
20260506234534 71 232 5.0 11.0 0.00 0.00 0.00 54 1014.2
20260506233038 71 178 4.0 14.0 0.00 0.00 0.00 54 1014.2
20260506231532 72 234 4.0 12.0 0.00 0.00 0.00 54 1014.3
20260506230032 73 225 5.0 11.0 0.00 0.00 0.00 53 1014.4
20260506224531 73 232 6.0 11.0 0.00 0.00 0.00 52 1014.5
20260506223028 73 226 4.0 10.0 0.00 0.00 0.00 50 1014.7
20260506221526 74 327 4.0 8.0 0.00 0.00 0.00 50 1014.9
20260506220025 74 203 4.0 9.0 0.00 0.00 0.00 48 1015.3
20260506214523 74 187 3.0 10.0 0.00 0.00 0.00 50 1015.4
20260506213021 74 173 3.0 9.0 0.00 0.00 0.00 51 1015.5
20260506211521 74 236 4.0 11.0 0.00 0.00 0.00 51 1015.8
20260506210017 74 215 3.0 8.0 0.00 0.00 0.00 52 1015.8
20260506204520 74 224 4.0 9.0 0.00 0.00 0.00 53 1015.8
20260506203017 74 224 5.0 11.0 0.00 0.00 0.00 53 1016.0
20260506201517 73 232 3.0 10.0 0.00 0.00 0.00 54 1016.1
20260506200013 73 288 2.0 10.0 0.00 0.00 0.00 55 1016.2
20260506194516 73 196 3.0 8.0 0.00 0.00 0.00 55 1016.3
20260506193009 73 228 4.0 11.0 0.00 0.00 0.00 55 1016.4
20260506191507 72 238 4.0 11.0 0.00 0.00 0.00 57 1016.4
20260506190006 72 186 4.0 10.0 0.00 0.00 0.00 56 1016.5
20260506184502 72 189 5.0 9.0 0.00 0.00 0.00 56 1016.5
20260506183101 72 182 4.0 11.0 0.00 0.00 0.00 54 1016.6
20260506181559 72 203 3.0 9.0 0.00 0.00 0.00 53 1016.8
20260506180104 72 225 3.0 7.0 0.00 0.00 0.00 51 1016.8
20260506174555 72 161 1.0 6.0 0.00 0.00 0.00 50 1016.8
20260506173055 72 169 1.0 5.0 0.00 0.00 0.00 51 1016.8
20260506171549 70 211 2.0 6.0 0.00 0.00 0.00 52 1017.0
20260506170053 69 159 1.0 5.0 0.00 0.00 0.00 54 1017.0
20260506164537 68 232 1.0 5.0 0.00 0.00 0.00 54 1017.0
20260506163054 69 192 1.0 3.0 0.00 0.00 0.00 55 1017.0
20260506161530 67 123 1.0 3.0 0.00 0.00 0.00 58 1017.1
20260506160024 65 80 1.0 5.0 0.00 0.00 0.00 62 1017.1
20260506154518 64 138 1.0 4.0 0.00 0.00 0.00 65 1017.1
20260506153014 63 52 1.0 5.0 0.00 0.00 0.00 66 1017.1
20260506151510 61 126 1.0 5.0 0.00 0.00 0.00 69 1017.2
20260506150005 60 39 0.0 3.0 0.00 0.00 0.00 72 1017.2
20260506144501 58 15 1.0 5.0 0.00 0.00 0.00 74 1017.1
20260506143106 57 38 2.0 5.0 0.00 0.00 0.00 77 1017.1
20260506141553 55 79 1.0 4.0 0.00 0.00 0.00 80 1016.9
20260506140048 53 52 2.0 6.0 0.00 0.00 0.00 82 1016.9
20260506134544 52 28 0.0 3.0 0.00 0.00 0.00 82 1016.9
20260506133042 51 36 1.0 3.0 0.00 0.00 0.00 83 1016.8
20260506131541 51 54 0.0 3.0 0.00 0.00 0.00 83 1016.7
20260506130038 51 49 0.0 2.0 0.00 0.00 0.00 83 1016.6
20260506124537 51 69 0.0 2.0 0.00 0.00 0.00 83 1016.4
20260506123037 51 87 0.0 0.0 0.00 0.00 0.00 83 1016.4
20260506121541 50 44 0.0 0.0 0.00 0.00 0.00 83 1016.2
20260506120035 50 36 0.0 0.0 0.00 0.00 0.00 83 1016.2
20260506114542 50 70 0.0 0.0 0.00 0.00 0.00 83 1016.1
20260506113035 51 54 0.0 0.0 0.00 0.00 0.00 83 1016.1
20260506111538 51 26 0.0 0.0 0.00 0.00 0.00 84 1016.0
20260506110033 50 26 0.0 0.0 0.00 0.00 0.00 83 1016.0
20260506104533 50 26 0.0 0.0 0.00 0.00 0.00 83 1016.1
20260506103032 50 26 0.0 0.0 0.00 0.00 0.00 83 1015.9
20260506101533 50 26 0.0 0.0 0.00 0.00 0.00 83 1015.8
20260506100028 50 26 0.0 0.0 0.00 0.00 0.00 83 1016.0
20260506094527 50 26 0.0 0.0 0.00 0.00 0.00 83 1015.9
20260506093030 50 26 0.0 0.0 0.00 0.00 0.00 83 1016.1
20260506091526 51 26 0.0 0.0 0.00 0.00 0.00 83 1016.3
20260506090024 51 26 0.0 0.0 0.00 0.00 0.00 82 1016.3
20260506084522 51 26 0.0 0.0 0.00 0.00 0.00 82 1016.3
20260506083020 52 26 0.0 0.0 0.00 0.00 0.00 82 1016.3
20260506081520 52 26 0.0 0.0 0.00 0.00 0.00 82 1016.3
20260506073017 52 21 0.0 0.0 0.00 0.00 0.00 81 1016.3
20260506071515 53 21 0.0 0.0 0.00 0.00 0.00 81 1016.1
20260506061514 54 19 0.0 0.0 0.00 0.00 0.00 80 1015.4
20260506044600 57 32 0.0 2.0 0.00 0.00 0.00 77 1014.8
20260506043058 58 32 0.0 1.0 0.00 0.00 0.00 76 1014.5
20260506041558 58 21 0.0 1.0 0.00 0.00 0.00 76 1014.5
20260506040101 59 355 0.0 3.0 0.00 0.00 0.00 75 1014.1
20260506034605 59 285 0.0 2.0 0.00 0.00 0.00 75 1013.9
20260506033051 59 355 0.0 1.0 0.00 0.00 0.00 73 1013.5
20260506031558 61 355 0.0 2.0 0.00 0.00 0.00 71 1013.3
20260506030047 62 316 0.0 1.0 0.00 0.00 0.00 69 1013.0
20260506024547 63 269 0.0 3.0 0.00 0.00 0.00 68 1012.8
20260506023048 64 249 0.0 3.0 0.00 0.00 0.00 67 1012.7
20260506021550 65 285 1.0 4.0 0.00 0.00 0.00 66 1012.5
20260506020046 65 213 1.0 4.0 0.00 0.00 0.00 66 1012.5